DLH19L EDDM-ENBR

Flight info

Callsign DLH19L
Flight time 2h 13m
Altitude 34000
Route INPUD3Q INPUD Y102 UPALA M726 LASGA DCT KUMER DCT DOSUR DCT RASVI DCT BADAB
Aircraft A321/M-SDE3FGHIJ1J5J6J7M1RWXY/LB1

Departure

Time 2026-05-06 14:21
Airport Munich Airport (EDDM)

Arrival

Time 2026-05-06 16:34
Airport Bergen Airport, Flesland (ENBR)
Time Latitude Longitude Altitude Speed Heading
2026-05-06 13:40 48.35250 11.80301 1467 ft 0 kts 84°
2026-05-06 14:04 48.35248 11.80279 1463 ft 3 kts 81°
2026-05-06 14:04 48.35243 11.80243 1464 ft 3 kts 72°
2026-05-06 14:04 48.35234 11.80210 1456 ft 3 kts 52°
2026-05-06 14:05 48.35218 11.80190 1460 ft 3 kts
2026-05-06 14:05 48.35214 11.80190 1461 ft 0 kts 354°
2026-05-06 14:08 48.35215 11.80190 1467 ft 1 kts 354°
2026-05-06 14:08 48.35218 11.80190 1467 ft 1 kts 354°
2026-05-06 14:08 48.35233 11.80187 1458 ft 4 kts 354°
2026-05-06 14:09 48.35264 11.80182 1462 ft 5 kts 353°
2026-05-06 14:09 48.35283 11.80178 1465 ft 3 kts 352°
2026-05-06 14:09 48.35325 11.80169 1465 ft 9 kts 352°
2026-05-06 14:09 48.35391 11.80152 1459 ft 10 kts 346°
2026-05-06 14:10 48.35462 11.80133 1467 ft 11 kts 353°
2026-05-06 14:10 48.35551 11.80118 1461 ft 14 kts 353°
2026-05-06 14:10 48.35649 11.80095 1458 ft 14 kts 342°
2026-05-06 14:10 48.35742 11.80072 1465 ft 11 kts 353°
2026-05-06 14:11 48.35807 11.80022 1460 ft 11 kts 309°
2026-05-06 14:11 48.35823 11.79908 1467 ft 12 kts 263°
2026-05-06 14:11 48.35816 11.79817 1460 ft 0 kts 263°
2026-05-06 14:13 48.35815 11.79808 1460 ft 3 kts 263°
2026-05-06 14:13 48.35810 11.79745 1464 ft 9 kts 263°
2026-05-06 14:13 48.35801 11.79639 1462 ft 11 kts 263°
2026-05-06 14:14 48.35805 11.79526 1461 ft 11 kts 286°
2026-05-06 14:14 48.35845 11.79422 1462 ft 12 kts 310°
2026-05-06 14:14 48.35915 11.79354 1465 ft 12 kts 332°
2026-05-06 14:14 48.35987 11.79335 1463 ft 3 kts 354°
2026-05-06 14:15 48.36011 11.79331 1467 ft 4 kts 354°
2026-05-06 14:15 48.36052 11.79324 1461 ft 8 kts 354°
2026-05-06 14:15 48.36086 11.79276 1458 ft 7 kts 269°
2026-05-06 14:15 48.36080 11.79188 1467 ft 10 kts 264°
2026-05-06 14:16 48.36070 11.79055 1468 ft 16 kts 263°
2026-05-06 14:16 48.36055 11.78850 1467 ft 23 kts 263°
2026-05-06 14:16 48.36036 11.78593 1467 ft 25 kts 264°
2026-05-06 14:16 48.36015 11.78331 1467 ft 25 kts 263°
2026-05-06 14:17 48.35995 11.78067 1467 ft 26 kts 263°
2026-05-06 14:17 48.35975 11.77800 1464 ft 26 kts 263°
2026-05-06 14:17 48.35954 11.77534 1467 ft 26 kts 263°
2026-05-06 14:17 48.35934 11.77267 1460 ft 26 kts 264°
2026-05-06 14:18 48.35925 11.77106 1461 ft 9 kts 280°
2026-05-06 14:18 48.35962 11.77023 1463 ft 10 kts 308°
2026-05-06 14:18 48.36023 11.76975 1464 ft 10 kts 354°
2026-05-06 14:18 48.36097 11.76963 1459 ft 11 kts 354°
2026-05-06 14:19 48.36176 11.76950 1463 ft 12 kts 354°
2026-05-06 14:19 48.36257 11.76934 1463 ft 10 kts 353°
2026-05-06 14:19 48.36293 11.76973 1464 ft 5 kts 74°
2026-05-06 14:19 48.36294 11.76982 1462 ft 0 kts 81°
2026-05-06 14:20 48.36294 11.76984 1462 ft 4 kts 81°
2026-05-06 14:20 48.36327 11.77386 1469 ft 73 kts 83°
2026-05-06 14:20 48.36409 11.78469 1458 ft 133 kts 83°
2026-05-06 14:20 48.36543 11.80162 1462 ft 181 kts 83°
2026-05-06 14:21 48.36684 11.82089 1889 ft 190 kts 83°
2026-05-06 14:21 48.36832 11.84059 2593 ft 189 kts 83°
2026-05-06 14:21 48.37117 11.86052 2929 ft 206 kts 62°
2026-05-06 14:21 48.38209 11.87538 3073 ft 228 kts 22°
2026-05-06 14:22 48.39861 11.87674 3217 ft 255 kts 349°
2026-05-06 14:22 48.41573 11.86706 3654 ft 271 kts 327°
2026-05-06 14:22 48.42939 11.84712 4330 ft 278 kts 309°
2026-05-06 14:22 48.44152 11.82434 5057 ft 280 kts 309°
2026-05-06 14:23 48.45405 11.80185 5787 ft 281 kts 309°
2026-05-06 14:23 48.46681 11.77938 6471 ft 283 kts 309°
2026-05-06 14:23 48.47976 11.75672 7185 ft 285 kts 309°
2026-05-06 14:23 48.49260 11.73429 7843 ft 288 kts 309°
2026-05-06 14:24 48.50573 11.71133 8465 ft 291 kts 308°
2026-05-06 14:24 48.51927 11.68752 9131 ft 294 kts 308°
2026-05-06 14:24 48.53286 11.66353 9788 ft 296 kts 308°
2026-05-06 14:24 48.54584 11.64058 10361 ft 297 kts 307°
2026-05-06 14:25 48.55939 11.61699 10948 ft 300 kts 311°
2026-05-06 14:25 48.57567 11.59689 11531 ft 307 kts 324°
2026-05-06 14:25 48.59563 11.58232 11692 ft 330 kts 336°
2026-05-06 14:25 48.61762 11.56978 11831 ft 347 kts 336°
2026-05-06 14:26 48.64071 11.55662 12046 ft 361 kts 336°
2026-05-06 14:26 48.66438 11.54308 12536 ft 366 kts 336°
2026-05-06 14:26 48.68838 11.52926 13090 ft 370 kts 335°
2026-05-06 14:26 48.71245 11.51532 13650 ft 373 kts 335°
2026-05-06 14:27 48.73676 11.50118 14166 ft 376 kts 335°
2026-05-06 14:27 48.76122 11.48695 14686 ft 378 kts 335°
2026-05-06 14:27 48.78586 11.47262 15149 ft 381 kts 335°
2026-05-06 14:27 48.81080 11.45811 15596 ft 384 kts 335°
2026-05-06 14:28 48.83587 11.44353 16068 ft 388 kts 335°
2026-05-06 14:28 48.86117 11.42880 16517 ft 391 kts 335°
2026-05-06 14:28 48.88671 11.41390 16958 ft 395 kts 335°
2026-05-06 14:28 48.91249 11.39889 17409 ft 398 kts 336°
2026-05-06 14:29 48.93954 11.38786 17847 ft 405 kts 344°
2026-05-06 14:29 48.96709 11.37874 18275 ft 408 kts 344°
2026-05-06 14:29 48.99492 11.36966 18674 ft 410 kts 344°
2026-05-06 14:29 49.02289 11.36057 19062 ft 412 kts 344°
2026-05-06 14:30 49.05135 11.35129 19443 ft 414 kts 344°
2026-05-06 14:30 49.07929 11.34216 19799 ft 417 kts 344°
2026-05-06 14:30 49.10780 11.33281 20164 ft 420 kts 344°
2026-05-06 14:30 49.13663 11.32322 20532 ft 423 kts 344°
2026-05-06 14:31 49.16575 11.31347 20901 ft 426 kts 344°
2026-05-06 14:31 49.19432 11.30389 21258 ft 428 kts 344°
2026-05-06 14:31 49.22357 11.29413 21626 ft 431 kts 344°
2026-05-06 14:31 49.25326 11.28425 21988 ft 433 kts 344°
2026-05-06 14:32 49.28259 11.27451 22334 ft 436 kts 344°
2026-05-06 14:32 49.31218 11.26470 22671 ft 439 kts 344°
2026-05-06 14:32 49.34208 11.25476 23019 ft 441 kts 344°
2026-05-06 14:32 49.37224 11.24470 23353 ft 444 kts 344°
2026-05-06 14:33 49.40247 11.23455 23646 ft 446 kts 344°
2026-05-06 14:33 49.43285 11.22429 23988 ft 448 kts 345°
2026-05-06 14:33 49.46322 11.21409 24440 ft 445 kts 345°
2026-05-06 14:33 49.49338 11.20401 24803 ft 445 kts 345°
2026-05-06 14:34 49.52368 11.19389 25118 ft 446 kts 345°
2026-05-06 14:34 49.55410 11.18372 25404 ft 448 kts 344°
2026-05-06 14:34 49.58468 11.17342 25683 ft 450 kts 344°
2026-05-06 14:34 49.61497 11.16321 25962 ft 452 kts 344°
2026-05-06 14:35 49.64617 11.15267 26244 ft 454 kts 344°
2026-05-06 14:35 49.67711 11.14217 26513 ft 457 kts 344°
2026-05-06 14:35 49.70828 11.13165 26803 ft 458 kts 344°
2026-05-06 14:35 49.73948 11.12116 27080 ft 460 kts 344°
2026-05-06 14:36 49.77046 11.11066 27347 ft 463 kts 344°
2026-05-06 14:36 49.80196 11.09988 27621 ft 465 kts 344°
2026-05-06 14:36 49.83352 11.08907 27904 ft 467 kts 344°
2026-05-06 14:36 49.86528 11.07826 28166 ft 469 kts 344°
2026-05-06 14:37 49.89720 11.06733 28434 ft 471 kts 344°
2026-05-06 14:37 49.92935 11.05630 28640 ft 474 kts 344°
2026-05-06 14:37 49.96152 11.04518 28871 ft 476 kts 344°
2026-05-06 14:37 49.99396 11.03397 29109 ft 478 kts 344°
2026-05-06 14:38 50.02643 11.02284 29355 ft 479 kts 344°
2026-05-06 14:38 50.05909 11.01168 29608 ft 481 kts 345°
2026-05-06 14:38 50.09184 11.00050 29811 ft 483 kts 345°
2026-05-06 14:38 50.12433 10.98933 29983 ft 485 kts 345°
2026-05-06 14:39 50.15732 10.97792 30150 ft 487 kts 345°
2026-05-06 14:39 50.19035 10.96648 30373 ft 487 kts 344°
2026-05-06 14:39 50.22348 10.95505 30623 ft 486 kts 344°
2026-05-06 14:39 50.25645 10.94366 30881 ft 486 kts 344°
2026-05-06 14:40 50.28943 10.93219 31135 ft 485 kts 344°
2026-05-06 14:40 50.32230 10.92073 31388 ft 484 kts 343°
2026-05-06 14:40 50.35518 10.90922 31650 ft 483 kts 343°
2026-05-06 14:40 50.38798 10.89773 31890 ft 483 kts 343°
2026-05-06 14:41 50.42071 10.88628 32102 ft 483 kts 343°
2026-05-06 14:41 50.45355 10.87484 32353 ft 482 kts 343°
2026-05-06 14:41 50.47517 10.86729 32518 ft 481 kts 343°
2026-05-06 14:41 50.51884 10.85203 32852 ft 480 kts 343°
2026-05-06 14:42 50.54037 10.84450 33017 ft 479 kts 343°
2026-05-06 14:42 50.57290 10.83310 33258 ft 478 kts 343°
2026-05-06 14:42 50.60537 10.82173 33501 ft 477 kts 343°
2026-05-06 14:42 50.63777 10.81033 33714 ft 477 kts 342°
2026-05-06 14:43 50.70210 10.78756 33787 ft 471 kts 343°
2026-05-06 14:43 50.76613 10.76489 33761 ft 469 kts 343°
2026-05-06 14:44 50.82954 10.74232 33766 ft 469 kts 343°
2026-05-06 14:45 50.92465 10.70825 33756 ft 469 kts 343°
2026-05-06 14:45 50.98839 10.68536 33761 ft 470 kts 343°
2026-05-06 14:46 51.05214 10.66250 33776 ft 470 kts 343°
2026-05-06 14:46 51.11600 10.63963 33789 ft 470 kts 343°
2026-05-06 14:47 51.17981 10.61662 33794 ft 470 kts 343°
2026-05-06 14:47 51.24353 10.59354 33793 ft 470 kts 343°
2026-05-06 14:48 51.30730 10.57043 33793 ft 470 kts 343°
2026-05-06 14:48 51.37052 10.54751 33815 ft 469 kts 343°
2026-05-06 14:49 51.43408 10.52428 33810 ft 467 kts 343°
2026-05-06 14:49 51.49743 10.50103 33805 ft 467 kts 343°
2026-05-06 14:50 51.56063 10.47789 33808 ft 466 kts 343°
2026-05-06 14:50 51.62385 10.45467 33809 ft 466 kts 343°
2026-05-06 14:51 51.68704 10.43136 33808 ft 466 kts 343°
2026-05-06 14:51 51.74974 10.40802 33808 ft 466 kts 343°
2026-05-06 14:52 51.81333 10.38440 33803 ft 465 kts 343°
2026-05-06 14:52 51.87626 10.36106 33813 ft 465 kts 343°
2026-05-06 14:53 51.93951 10.33741 33806 ft 465 kts 343°
2026-05-06 14:53 52.00256 10.31376 33832 ft 465 kts 343°
2026-05-06 14:54 52.06527 10.29019 33825 ft 465 kts 343°
2026-05-06 14:54 52.12821 10.26648 33840 ft 463 kts 344°
2026-05-06 14:55 52.19096 10.24286 33830 ft 463 kts 344°
2026-05-06 14:55 52.25364 10.21915 33843 ft 462 kts 343°
2026-05-06 14:56 52.31625 10.19528 33846 ft 462 kts 343°
2026-05-06 14:56 52.37892 10.17138 33851 ft 462 kts 344°
2026-05-06 14:57 52.44153 10.14758 33862 ft 462 kts 344°
2026-05-06 14:57 52.50402 10.12358 33857 ft 461 kts 344°
2026-05-06 14:58 52.56607 10.09972 33861 ft 461 kts 344°
2026-05-06 14:58 52.62855 10.07564 33865 ft 462 kts 344°
2026-05-06 14:59 52.69114 10.05129 33866 ft 462 kts 345°
2026-05-06 14:59 52.75361 10.02703 33868 ft 460 kts 345°
2026-05-06 15:00 52.81610 10.00283 33862 ft 460 kts 344°
2026-05-06 15:00 52.87808 9.97871 33874 ft 459 kts 345°
2026-05-06 15:01 52.94013 9.95445 33872 ft 457 kts 345°
2026-05-06 15:01 53.00200 9.93025 33868 ft 456 kts 345°
2026-05-06 15:02 53.06372 9.90598 33872 ft 456 kts 345°
2026-05-06 15:02 53.12547 9.88152 33872 ft 456 kts 345°
2026-05-06 15:03 53.18719 9.85708 33881 ft 455 kts 345°
2026-05-06 15:03 53.24877 9.83261 33889 ft 455 kts 345°
2026-05-06 15:04 53.31034 9.80809 33888 ft 455 kts 345°
2026-05-06 15:04 53.37163 9.78369 33900 ft 455 kts 345°
2026-05-06 15:05 53.43307 9.75902 33899 ft 455 kts 345°
2026-05-06 15:05 53.49471 9.73414 33916 ft 455 kts 345°
2026-05-06 15:06 53.55627 9.70947 33913 ft 455 kts 345°
2026-05-06 15:06 53.61782 9.68462 33917 ft 455 kts 345°
2026-05-06 15:07 53.67931 9.65963 33913 ft 455 kts 345°
2026-05-06 15:07 53.74092 9.63459 33908 ft 455 kts 345°
2026-05-06 15:08 53.80249 9.60943 33907 ft 455 kts 345°
2026-05-06 15:08 53.86405 9.58432 33917 ft 455 kts 345°
2026-05-06 15:09 53.92567 9.55907 33912 ft 456 kts 344°
2026-05-06 15:09 53.98731 9.53366 33909 ft 456 kts 344°
2026-05-06 15:10 54.04899 9.50813 33913 ft 456 kts 344°
2026-05-06 15:10 54.11013 9.48281 33919 ft 455 kts 344°
2026-05-06 15:11 54.17178 9.45721 33919 ft 456 kts 344°
2026-05-06 15:11 54.23334 9.43158 33909 ft 456 kts 343°
2026-05-06 15:12 54.29493 9.40581 33910 ft 456 kts 344°
2026-05-06 15:12 54.35657 9.38009 33906 ft 456 kts 344°
2026-05-06 15:13 54.41824 9.35422 33932 ft 456 kts 343°
2026-05-06 15:13 54.47985 9.32817 33930 ft 456 kts 343°
2026-05-06 15:14 54.54116 9.30221 33932 ft 457 kts 343°
2026-05-06 15:14 54.60286 9.27603 33933 ft 457 kts 343°
2026-05-06 15:15 54.66454 9.24981 33938 ft 457 kts 343°
2026-05-06 15:15 54.72629 9.22339 33929 ft 458 kts 343°
2026-05-06 15:16 54.78807 9.19696 33950 ft 456 kts 343°
2026-05-06 15:16 54.84924 9.17076 33948 ft 455 kts 343°
2026-05-06 15:17 54.91066 9.14426 33946 ft 454 kts 342°
2026-05-06 15:17 54.97191 9.11768 33954 ft 454 kts 342°
2026-05-06 15:18 55.03323 9.09105 33952 ft 454 kts 342°
2026-05-06 15:18 55.09441 9.06448 33947 ft 453 kts 342°
2026-05-06 15:19 55.15516 9.03803 33944 ft 453 kts 342°
2026-05-06 15:19 55.21632 9.01119 33959 ft 453 kts 342°
2026-05-06 15:20 55.27747 8.98420 33951 ft 454 kts 341°
2026-05-06 15:20 55.33872 8.95719 33946 ft 454 kts 342°
2026-05-06 15:21 55.40005 8.93015 33957 ft 454 kts 342°
2026-05-06 15:21 55.46138 8.90298 33982 ft 455 kts 341°
2026-05-06 15:22 55.52235 8.87582 33957 ft 456 kts 341°
2026-05-06 15:22 55.58389 8.84824 33949 ft 457 kts 341°
2026-05-06 15:23 55.64557 8.82065 33948 ft 457 kts 341°
2026-05-06 15:23 55.70723 8.79308 33951 ft 458 kts 341°
2026-05-06 15:24 55.76862 8.76540 33953 ft 458 kts 341°
2026-05-06 15:24 55.83030 8.73744 33955 ft 458 kts 341°
2026-05-06 15:25 55.89203 8.70939 33958 ft 458 kts 341°
2026-05-06 15:25 55.95379 8.68133 33959 ft 458 kts 341°
2026-05-06 15:26 56.01551 8.65324 33978 ft 458 kts 341°
2026-05-06 15:26 56.07689 8.62523 33974 ft 458 kts 341°
2026-05-06 15:27 56.13864 8.59675 33975 ft 458 kts 340°
2026-05-06 15:27 56.20038 8.56807 33984 ft 458 kts 340°
2026-05-06 15:28 56.26208 8.53934 33980 ft 458 kts 340°
2026-05-06 15:28 56.32384 8.51073 34007 ft 458 kts 340°
2026-05-06 15:29 56.38511 8.48231 34001 ft 457 kts 340°
2026-05-06 15:29 56.44672 8.45369 33996 ft 457 kts 340°
2026-05-06 15:30 56.50827 8.42488 33995 ft 457 kts 340°
2026-05-06 15:30 56.56983 8.39578 34018 ft 457 kts 340°
2026-05-06 15:31 56.63125 8.36667 34016 ft 456 kts 340°
2026-05-06 15:31 56.69227 8.33775 34008 ft 456 kts 340°
2026-05-06 15:32 56.78441 8.29398 34007 ft 456 kts 340°
2026-05-06 15:32 56.84580 8.26467 34037 ft 456 kts 339°
2026-05-06 15:33 56.90712 8.23517 34028 ft 456 kts 339°
2026-05-06 15:33 56.96836 8.20575 34006 ft 454 kts 339°
2026-05-06 15:34 57.02899 8.17652 34007 ft 454 kts 339°
2026-05-06 15:34 57.09017 8.14685 34004 ft 454 kts 339°
2026-05-06 15:35 57.15130 8.11705 34026 ft 455 kts 338°
2026-05-06 15:35 57.21241 8.08720 34023 ft 455 kts 338°
2026-05-06 15:36 57.27309 8.05693 34020 ft 452 kts 334°
2026-05-06 15:36 57.32871 8.00792 34015 ft 439 kts 322°
2026-05-06 15:37 57.38142 7.95084 33999 ft 439 kts 322°
2026-05-06 15:37 57.43427 7.89384 34038 ft 439 kts 322°
2026-05-06 15:38 57.48711 7.83669 34024 ft 439 kts 322°
2026-05-06 15:38 57.53975 7.77935 34035 ft 438 kts 322°
2026-05-06 15:39 57.59200 7.72224 34021 ft 438 kts 322°
2026-05-06 15:39 57.64459 7.66463 34017 ft 438 kts 322°
2026-05-06 15:40 57.69710 7.60710 34016 ft 438 kts 322°
2026-05-06 15:40 57.74958 7.54939 33998 ft 436 kts 322°
2026-05-06 15:41 57.80187 7.49154 33996 ft 437 kts 322°
2026-05-06 15:41 57.85375 7.43392 33988 ft 437 kts 322°
2026-05-06 15:42 57.90603 7.37566 33989 ft 437 kts 321°
2026-05-06 15:42 57.95827 7.31722 34008 ft 437 kts 322°
2026-05-06 15:43 58.01051 7.25861 34005 ft 437 kts 322°
2026-05-06 15:43 58.06228 7.20058 33967 ft 435 kts 321°
2026-05-06 15:44 58.11430 7.14189 33969 ft 436 kts 321°
2026-05-06 15:44 58.16632 7.08289 33983 ft 436 kts 321°
2026-05-06 15:45 58.21829 7.02354 33981 ft 436 kts 321°
2026-05-06 15:45 58.27032 6.96417 33981 ft 436 kts 321°
2026-05-06 15:46 58.32202 6.90516 34009 ft 436 kts 321°
2026-05-06 15:46 58.37392 6.84565 34005 ft 435 kts 321°
2026-05-06 15:47 58.42572 6.78591 34024 ft 435 kts 321°
2026-05-06 15:47 58.47750 6.72600 34029 ft 435 kts 321°
2026-05-06 15:48 58.52933 6.66593 34022 ft 435 kts 321°
2026-05-06 15:48 58.58101 6.60584 34023 ft 435 kts 321°
2026-05-06 15:49 58.63233 6.54573 34023 ft 435 kts 321°
2026-05-06 15:49 58.68386 6.48520 34040 ft 435 kts 321°
2026-05-06 15:50 58.73550 6.42450 34036 ft 435 kts 321°
2026-05-06 15:50 58.78706 6.36367 34036 ft 435 kts 321°
2026-05-06 15:51 58.83828 6.30299 34058 ft 434 kts 321°
2026-05-06 15:51 58.88970 6.24190 34092 ft 433 kts 321°
2026-05-06 15:52 58.94061 6.18125 34033 ft 428 kts 321°
2026-05-06 15:52 58.99150 6.12025 33153 ft 432 kts 320°
2026-05-06 15:53 59.01685 6.08975 32720 ft 426 kts 320°
2026-05-06 15:53 59.04194 6.05957 32248 ft 422 kts 320°
2026-05-06 15:53 59.06740 6.03254 31755 ft 426 kts 328°
2026-05-06 15:53 59.09572 6.01401 31274 ft 433 kts 339°
2026-05-06 15:54 59.12530 6.00257 30768 ft 432 kts 341°
2026-05-06 15:54 59.15476 5.99157 30267 ft 429 kts 341°
2026-05-06 15:54 59.18393 5.98065 29824 ft 425 kts 340°
2026-05-06 15:54 59.21289 5.96971 29258 ft 421 kts 340°
2026-05-06 15:55 59.24142 5.95882 28811 ft 415 kts 339°
2026-05-06 15:55 59.26960 5.94797 28351 ft 410 kts 339°
2026-05-06 15:55 59.29741 5.93724 27897 ft 405 kts 340°
2026-05-06 15:55 59.32502 5.92657 27326 ft 403 kts 340°
2026-05-06 15:56 59.35195 5.91626 26927 ft 397 kts 340°
2026-05-06 15:56 59.37884 5.90597 26509 ft 391 kts 340°
2026-05-06 15:56 59.40539 5.89576 26098 ft 386 kts 340°
2026-05-06 15:56 59.43170 5.88588 25685 ft 384 kts 343°
2026-05-06 15:57 59.45836 5.88082 25272 ft 383 kts 347°
2026-05-06 15:57 59.48481 5.87659 24870 ft 380 kts 346°
2026-05-06 15:57 59.51108 5.87237 24444 ft 377 kts 346°
2026-05-06 15:57 59.53713 5.86816 24035 ft 374 kts 346°
2026-05-06 15:58 59.56276 5.86398 23670 ft 368 kts 346°
2026-05-06 15:58 59.58825 5.85974 23150 ft 364 kts 346°
2026-05-06 15:58 59.61299 5.85563 22675 ft 361 kts 346°
2026-05-06 15:58 59.63780 5.85153 22249 ft 355 kts 346°
2026-05-06 15:59 59.66217 5.84760 21851 ft 349 kts 346°
2026-05-06 15:59 59.68617 5.84374 21450 ft 344 kts 346°
2026-05-06 15:59 59.70986 5.83986 21054 ft 339 kts 346°
2026-05-06 15:59 59.73322 5.83597 20656 ft 335 kts 346°
2026-05-06 16:00 59.75629 5.83209 20265 ft 331 kts 346°
2026-05-06 16:00 59.77915 5.82824 19882 ft 328 kts 345°
2026-05-06 16:00 59.80177 5.82445 19491 ft 325 kts 346°
2026-05-06 16:00 59.82408 5.82026 19105 ft 318 kts 341°
2026-05-06 16:01 59.84542 5.81266 18731 ft 313 kts 340°
2026-05-06 16:01 59.86687 5.80493 18352 ft 312 kts 340°
2026-05-06 16:01 59.88814 5.79731 17934 ft 310 kts 341°
2026-05-06 16:01 59.90928 5.78974 17562 ft 307 kts 340°
2026-05-06 16:02 59.93018 5.78226 17198 ft 303 kts 341°
2026-05-06 16:02 59.95080 5.77486 16828 ft 299 kts 341°
2026-05-06 16:02 59.97110 5.76754 16472 ft 295 kts 341°
2026-05-06 16:02 59.99121 5.76028 16113 ft 292 kts 341°
2026-05-06 16:03 60.01113 5.75304 15754 ft 289 kts 341°
2026-05-06 16:03 60.03081 5.74593 15408 ft 286 kts 341°
2026-05-06 16:03 60.05025 5.73887 15107 ft 283 kts 342°
2026-05-06 16:03 60.06963 5.73183 14729 ft 281 kts 342°
2026-05-06 16:04 60.08856 5.72493 14389 ft 279 kts 342°
2026-05-06 16:04 60.10757 5.71797 14048 ft 277 kts 343°
2026-05-06 16:04 60.12642 5.71107 13690 ft 274 kts 343°
2026-05-06 16:04 60.14513 5.70460 13332 ft 271 kts 345°
2026-05-06 16:05 60.16374 5.69919 12999 ft 268 kts 346°
2026-05-06 16:05 60.18212 5.69424 12659 ft 265 kts 347°
2026-05-06 16:05 60.20027 5.68937 12335 ft 263 kts 347°
2026-05-06 16:05 60.21232 5.68611 12115 ft 263 kts 348°
2026-05-06 16:06 60.23040 5.68118 11796 ft 262 kts 348°
2026-05-06 16:06 60.24843 5.67620 11472 ft 261 kts 348°
2026-05-06 16:06 60.26638 5.67121 11150 ft 261 kts 348°
2026-05-06 16:06 60.28434 5.66621 10825 ft 260 kts 349°
2026-05-06 16:07 60.30800 5.65955 10397 ft 259 kts 349°
2026-05-06 16:07 60.32581 5.65451 10078 ft 258 kts 349°
2026-05-06 16:07 60.33784 5.65108 9857 ft 258 kts 350°
2026-05-06 16:07 60.35537 5.64610 9530 ft 258 kts 349°
2026-05-06 16:08 60.37308 5.64111 9209 ft 257 kts 350°
2026-05-06 16:08 60.39078 5.63612 8891 ft 256 kts 349°
2026-05-06 16:08 60.40838 5.63114 8568 ft 254 kts 350°
2026-05-06 16:08 60.42582 5.62621 8291 ft 251 kts 349°
2026-05-06 16:09 60.44289 5.62139 8124 ft 242 kts 349°
2026-05-06 16:09 60.45950 5.61670 8066 ft 241 kts 350°
2026-05-06 16:09 60.47617 5.61215 7977 ft 242 kts 353°
2026-05-06 16:09 60.49303 5.61199 7913 ft 243 kts 358°
2026-05-06 16:10 60.50991 5.61251 7856 ft 243 kts 358°
2026-05-06 16:10 60.52678 5.61284 7766 ft 242 kts 355°
2026-05-06 16:10 60.54301 5.60764 7633 ft 238 kts 340°
2026-05-06 16:10 60.55859 5.59671 7506 ft 237 kts 338°
2026-05-06 16:11 60.57415 5.58569 7371 ft 236 kts 338°
2026-05-06 16:11 60.58927 5.57309 7284 ft 235 kts 327°
2026-05-06 16:11 60.60233 5.55363 7148 ft 232 kts 318°
2026-05-06 16:11 60.61479 5.53272 6995 ft 231 kts 318°
2026-05-06 16:12 60.62715 5.51208 6821 ft 230 kts 318°
2026-05-06 16:12 60.63782 5.48809 6652 ft 227 kts 301°
2026-05-06 16:12 60.64588 5.46059 6485 ft 226 kts 299°
2026-05-06 16:12 60.65388 5.43300 6305 ft 226 kts 298°
2026-05-06 16:13 60.66153 5.40522 6130 ft 224 kts 291°
2026-05-06 16:13 60.66569 5.37489 5952 ft 222 kts 277°
2026-05-06 16:13 60.66801 5.34386 5741 ft 221 kts 277°
2026-05-06 16:13 60.66753 5.31334 5544 ft 219 kts 254°
2026-05-06 16:14 60.65979 5.28638 5341 ft 221 kts 226°
2026-05-06 16:14 60.64670 5.27080 5159 ft 225 kts 198°
2026-05-06 16:14 60.63093 5.26896 4985 ft 231 kts 180°
2026-05-06 16:14 60.61482 5.27047 4792 ft 231 kts 180°
2026-05-06 16:15 60.59873 5.27202 4595 ft 231 kts 180°
2026-05-06 16:15 60.58268 5.27354 4413 ft 230 kts 180°
2026-05-06 16:15 60.56661 5.27503 4225 ft 230 kts 180°
2026-05-06 16:15 60.55077 5.27648 4039 ft 229 kts 180°
2026-05-06 16:16 60.53489 5.27794 3842 ft 228 kts 180°
2026-05-06 16:16 60.51927 5.27494 3660 ft 224 kts 200°
2026-05-06 16:16 60.50574 5.26069 3484 ft 218 kts 221°
2026-05-06 16:16 60.49598 5.23764 3312 ft 216 kts 241°
2026-05-06 16:17 60.48864 5.21105 3161 ft 211 kts 242°
2026-05-06 16:17 60.48141 5.18591 3080 ft 202 kts 236°
2026-05-06 16:17 60.47129 5.16839 2997 ft 189 kts 208°
2026-05-06 16:17 60.45877 5.16281 2857 ft 183 kts 181°
2026-05-06 16:18 60.44584 5.16651 2717 ft 190 kts 174°
2026-05-06 16:18 60.43277 5.17103 2568 ft 190 kts 173°
2026-05-06 16:18 60.41991 5.17542 2485 ft 191 kts 173°
2026-05-06 16:18 60.40686 5.17985 2311 ft 190 kts 173°
2026-05-06 16:19 60.39400 5.18421 2067 ft 182 kts 173°
2026-05-06 16:19 60.38194 5.18832 1836 ft 165 kts 174°
2026-05-06 16:19 60.37110 5.19199 1605 ft 153 kts 175°
2026-05-06 16:19 60.36100 5.19539 1406 ft 149 kts 174°
2026-05-06 16:20 60.35063 5.19886 1179 ft 148 kts 174°
2026-05-06 16:20 60.34048 5.20228 965 ft 147 kts 173°
2026-05-06 16:20 60.33027 5.20572 750 ft 146 kts 173°
2026-05-06 16:20 60.32034 5.20924 521 ft 145 kts 174°
2026-05-06 16:21 60.31041 5.21265 303 ft 143 kts 175°
2026-05-06 16:21 60.30021 5.21563 325 ft 160 kts 172°
2026-05-06 16:21 60.28860 5.21934 955 ft 179 kts 174°
2026-05-06 16:21 60.27562 5.22302 1723 ft 190 kts 174°
2026-05-06 16:22 60.26247 5.22696 2359 ft 191 kts 175°
2026-05-06 16:22 60.24930 5.23112 2989 ft 193 kts 174°
2026-05-06 16:22 60.23594 5.23553 3613 ft 196 kts 173°
2026-05-06 16:22 60.22180 5.23763 3715 ft 216 kts 192°
2026-05-06 16:23 60.20834 5.22545 3363 ft 215 kts 224°
2026-05-06 16:23 60.20098 5.20030 3011 ft 207 kts 262°
2026-05-06 16:23 60.20021 5.17087 3015 ft 214 kts 272°
2026-05-06 16:23 60.20073 5.14089 3008 ft 215 kts 274°
2026-05-06 16:24 60.20144 5.11079 3012 ft 216 kts 273°
2026-05-06 16:24 60.20217 5.08053 3008 ft 217 kts 273°
2026-05-06 16:24 60.20354 5.05050 3005 ft 215 kts 287°
2026-05-06 16:24 60.21146 5.02536 3009 ft 217 kts 320°
2026-05-06 16:25 60.22518 5.01304 3010 ft 220 kts 345°
2026-05-06 16:25 60.24031 5.00780 3010 ft 221 kts 349°
2026-05-06 16:25 60.25541 5.00363 3007 ft 222 kts 350°
2026-05-06 16:25 60.27073 4.99959 3010 ft 222 kts 350°
2026-05-06 16:26 60.28606 4.99558 3013 ft 222 kts 349°
2026-05-06 16:26 60.30140 4.99159 3009 ft 222 kts 349°
2026-05-06 16:26 60.31669 4.98761 3009 ft 222 kts 350°
2026-05-06 16:26 60.33200 4.98364 3010 ft 222 kts 350°
2026-05-06 16:27 60.34734 4.98009 3008 ft 223 kts 356°
2026-05-06 16:27 60.36284 4.98379 3007 ft 225 kts
2026-05-06 16:27 60.37822 4.99035 3010 ft 228 kts
2026-05-06 16:27 60.39378 4.99737 3007 ft 229 kts
2026-05-06 16:28 60.40931 5.00442 3004 ft 229 kts 11°
2026-05-06 16:28 60.42459 5.01139 3005 ft 229 kts 10°
2026-05-06 16:28 60.44019 5.01854 3004 ft 229 kts
2026-05-06 16:28 60.45593 5.02575 3005 ft 229 kts 11°
2026-05-06 16:29 60.47125 5.03312 2996 ft 230 kts 15°
2026-05-06 16:29 60.48462 5.05069 2995 ft 234 kts 49°
2026-05-06 16:29 60.49140 5.08049 2997 ft 236 kts 82°
2026-05-06 16:29 60.49133 5.11370 2994 ft 236 kts 105°
2026-05-06 16:30 60.48396 5.14293 2996 ft 233 kts 131°
2026-05-06 16:30 60.47636 5.15807 3000 ft 220 kts 147°
2026-05-06 16:30 60.45880 5.17258 2852 ft 198 kts 178°
2026-05-06 16:30 60.44555 5.17003 2578 ft 189 kts 192°
2026-05-06 16:31 60.43235 5.17147 2406 ft 193 kts 175°
2026-05-06 16:31 60.41900 5.17578 2400 ft 194 kts 173°
2026-05-06 16:31 60.40585 5.18021 2264 ft 184 kts 173°
2026-05-06 16:31 60.39373 5.18432 2074 ft 168 kts 173°
2026-05-06 16:32 60.38255 5.18810 1839 ft 159 kts 173°
2026-05-06 16:32 60.37200 5.19167 1621 ft 150 kts 174°
2026-05-06 16:32 60.36179 5.19510 1420 ft 147 kts 174°
2026-05-06 16:32 60.35165 5.19851 1207 ft 148 kts 174°
2026-05-06 16:33 60.34158 5.20191 983 ft 146 kts 174°
2026-05-06 16:33 60.33173 5.20523 783 ft 145 kts 174°
2026-05-06 16:33 60.32193 5.20853 577 ft 141 kts 174°
2026-05-06 16:34 60.30251 5.21528 190 ft 136 kts 175°
2026-05-06 16:34 60.29429 5.21775 153 ft 105 kts 169°
2026-05-06 16:34 60.28879 5.21969 164 ft 56 kts 171°
2026-05-06 16:34 60.28679 5.22049 161 ft 13 kts 150°
2026-05-06 16:35 60.28671 5.22180 162 ft 9 kts 80°
2026-05-06 16:35 60.28678 5.22260 165 ft 1 kts 81°
2026-05-06 16:35 60.28678 5.22262 165 ft 0 kts 81°
2026-05-06 16:35 60.28678 5.22265 165 ft 1 kts 81°
2026-05-06 16:36 60.28679 5.22274 165 ft 0 kts 81°
2026-05-06 16:36 60.28681 5.22301 166 ft 3 kts 79°
2026-05-06 16:36 60.28701 5.22342 168 ft 5 kts 23°
2026-05-06 16:36 60.28754 5.22336 169 ft 10 kts 351°
2026-05-06 16:37 60.28846 5.22306 171 ft 17 kts 351°
2026-05-06 16:37 60.28929 5.22310 173 ft 8 kts 49°
2026-05-06 16:37 60.28950 5.22371 175 ft 4 kts 55°
2026-05-06 16:37 60.28950 5.22425 175 ft 4 kts 103°
2026-05-06 16:38 60.28940 5.22497 175 ft 6 kts 107°
2026-05-06 16:38 60.28933 5.22541 175 ft 2 kts 107°
2026-05-06 16:38 60.28932 5.22547 175 ft 0 kts 107°